Siemreap, Cambodia

1:11 PM +07 on October 19, 2017 (GMT +0700)
Siem Reap

Weather History for VDSR - October, 2013

Change the Weather History Date:

Wednesday, October 23, 2013

  Actual Average Record
Temperature  
Mean Temperature 82 °F -  
Max Temperature 87 °F - - ()
Min Temperature 78 °F - - ()
Cooling Degree Days 18    
Growing Degree Days 32 (Base 50)    
Moisture  
Dew Point 75 °F    
Average Humidity 78    
Maximum Humidity 94    
Minimum Humidity 58    
Precipitation  
Precipitation 0.00 in - - ()
Sea Level Pressure  
Sea Level Pressure 29.85 in    
Wind  
Wind Speed 4 mph ()    
Max Wind Speed 9 mph    
Max Gust Speed -    
Visibility 6.0 miles    
Events      
T = Trace of Precipitation, MM = Missing Value Source: Averaged Metar Reports

Daily Weather History Graph

Daily Weather History Graph

Search for Another Location

Airport or City:

Trip Planner

Search our weather history database for the weather conditions in past years. The results will help you decide how hot, cold, wet, or windy it might be!

Date:

Astronomy

Oct. 23, 2013 Rise Set
Actual Time 5:56 AM +07 5:41 PM +07
Civil Twilight 5:34 AM +07 6:02 PM +07
Nautical Twilight 5:09 AM +07 6:27 PM +07
Astronomical Twilight 4:44 AM +07 6:52 PM +07
Moon 9:08 PM +07 (10/23) 9:23 AM +07 (10/23)
Length of Visible Light 12h 28m
Length of Day
11h 44m
Waning Gibbous, 83% of the Moon is Illuminated
Oct 23
Waning Gibbous
Oct 27
Last Quarter
Nov 3
New
Nov 10
First Quarter
Nov 17
Full

Hourly Weather History & Observations

Time (+07) Temp. Heat Index Dew Point Humidity Pressure Visibility Wind Dir Wind Speed Gust Speed Precip Events Conditions
12:00 AM 80.6 °F 88.1 °F 78.8 °F 94% 29.86 in 6.2 mi North 1.2 mph - N/A   Partly Cloudy
12:30 AM 80.6 °F 88.1 °F 78.8 °F 94% 29.86 in 6.2 mi North 2.3 mph - N/A   Partly Cloudy
1:00 AM 80.6 °F 87.1 °F 77.0 °F 89% 29.86 in 6.2 mi North 3.5 mph - N/A   Partly Cloudy
7:00 AM 78.8 °F - 73.4 °F 83% 29.89 in 6.2 mi East 4.6 mph - N/A   Partly Cloudy
7:30 AM 78.8 °F - 73.4 °F 83% 29.89 in 6.2 mi East 6.9 mph - N/A   Scattered Clouds
8:00 AM 80.6 °F 85.4 °F 73.4 °F 79% 29.89 in 6.2 mi East 6.9 mph - N/A   Scattered Clouds
8:30 AM 82.4 °F 87.2 °F 71.6 °F 70% 29.89 in 6.2 mi ESE 6.9 mph - N/A   Scattered Clouds
9:00 AM 84.2 °F 90.9 °F 73.4 °F 70% 29.92 in 6.2 mi SE 5.8 mph - N/A   Scattered Clouds
9:30 AM 84.2 °F 89.6 °F 71.6 °F 66% 29.92 in - Variable 2.3 mph - N/A   Clear
10:00 AM 84.2 °F 89.6 °F 71.6 °F 66% 29.89 in - Variable 2.3 mph - N/A   Clear
10:30 AM 86.0 °F 91.8 °F 71.6 °F 62% 29.89 in - Variable 2.3 mph - N/A   Clear
11:00 AM 87.8 °F 93.8 °F 71.6 °F 58% 29.89 in 6.2 mi Variable 2.3 mph - N/A   Scattered Clouds
11:30 AM 84.2 °F 89.6 °F 71.6 °F 66% 29.86 in 6.2 mi WSW 5.8 mph - N/A   Scattered Clouds
12:00 PM 86.0 °F 91.8 °F 71.6 °F 62% 29.86 in 6.2 mi WSW 5.8 mph - N/A   Scattered Clouds
12:30 PM 86.0 °F 93.4 °F 73.4 °F 66% 29.83 in 6.2 mi SW 8.1 mph - N/A   Scattered Clouds
1:00 PM 86.0 °F 93.4 °F 73.4 °F 66% 29.83 in 6.2 mi SW 9.2 mph - N/A   Scattered Clouds
1:30 PM 84.2 °F 89.6 °F 71.6 °F 66% 29.83 in 6.2 mi West 4.6 mph - N/A   Scattered Clouds
2:00 PM 86.0 °F 93.4 °F 73.4 °F 66% 29.80 in 6.2 mi SSW 9.2 mph - N/A   Scattered Clouds
2:30 PM 86.0 °F 93.4 °F 73.4 °F 66% 29.80 in 6.2 mi SSW 5.8 mph - N/A   Scattered Clouds
3:00 PM 86.0 °F 93.4 °F 73.4 °F 66% 29.80 in 6.2 mi West 4.6 mph - N/A   Scattered Clouds
3:30 PM 84.2 °F 90.9 °F 73.4 °F 70% 29.80 in 6.2 mi South 5.8 mph - N/A   Scattered Clouds
4:00 PM 84.2 °F 89.6 °F 71.6 °F 66% 29.80 in 6.2 mi South 5.8 mph - N/A   Scattered Clouds
4:30 PM 84.2 °F 89.6 °F 71.6 °F 66% 29.80 in 6.2 mi SW 2.3 mph - N/A   Scattered Clouds
5:00 PM 82.4 °F 90.9 °F 77.0 °F 84% 29.80 in 6.2 mi Variable 1.2 mph - N/A   Scattered Clouds
5:30 PM 82.4 °F 90.9 °F 77.0 °F 84% 29.80 in 6.2 mi Variable 2.3 mph - N/A   Scattered Clouds
6:00 PM 82.4 °F 90.9 °F 77.0 °F 84% 29.80 in 5.6 mi Variable 2.3 mph - N/A   Scattered Clouds
6:30 PM 82.4 °F 90.9 °F 77.0 °F 84% 29.80 in 5.6 mi Variable 2.3 mph - N/A   Scattered Clouds
7:00 PM 82.4 °F 90.9 °F 77.0 °F 84% 29.80 in 5.6 mi Variable 2.3 mph - N/A   Scattered Clouds
7:30 PM 80.6 °F 87.1 °F 77.0 °F 89% 29.83 in 5.6 mi Variable 3.5 mph - N/A   Scattered Clouds
8:00 PM 80.6 °F 87.1 °F 77.0 °F 89% 29.83 in 5.6 mi Variable 2.3 mph - N/A   Scattered Clouds
8:30 PM 80.6 °F 87.1 °F 77.0 °F 89% 29.86 in 5.6 mi Variable 1.2 mph - N/A   Scattered Clouds
9:00 PM 80.6 °F 87.1 °F 77.0 °F 89% 29.86 in 5.6 mi Variable 2.3 mph - N/A   Scattered Clouds
9:30 PM 80.6 °F 87.1 °F 77.0 °F 89% 29.86 in 5.6 mi Variable 3.5 mph - N/A   Scattered Clouds
10:00 PM 78.8 °F - 77.0 °F 94% 29.86 in 5.6 mi Variable 2.3 mph - N/A   Scattered Clouds
10:30 PM 78.8 °F - 77.0 °F 94% 29.86 in 5.6 mi Variable 1.2 mph - N/A   Scattered Clouds
11:00 PM 80.6 °F 87.1 °F 77.0 °F 89% 29.86 in 5.6 mi Variable 2.3 mph - N/A   Scattered Clouds
11:30 PM 80.6 °F 87.1 °F 77.0 °F 89% 29.86 in 5.6 mi Variable 3.5 mph - N/A   Scattered Clouds